This is the latest recevied weather packets stored in our database for station/object N0ZMJ-3. If no packets are shown the sender has not sent any weather packets the latest 10 day(s).
| Time | Temp. | Humidity | Pressure | Rain* | Wind** | Luminosity | Snow |
|---|---|---|---|---|---|---|---|
| 1777930767 | 11.67° C | 51% | 1005.7 hPa | 0 mm | - | - | - |
| 1777930455 | 11.67° C | 51% | 1005.8 hPa | 0 mm | - | - | - |
| 1777930344 | 11.67° C | 51% | 1005.8 hPa | 0 mm | - | - | - |
| 1777929922 | 11.67° C | 51% | 1005.7 hPa | 0 mm | - | - | - |
| 1777929855 | 11.67° C | 51% | 1005.6 hPa | 0 mm | - | - | - |
| 1777929502 | 11.67° C | 50% | 1005.7 hPa | 0 mm | - | - | - |
| 1777929254 | 12.22° C | 51% | 1005.5 hPa | 0 mm | - | - | - |
| 1777929082 | 12.22° C | 51% | 1005.5 hPa | 0 mm | - | - | - |
| 1777928656 | 12.22° C | 52% | 1005.5 hPa | 0 mm | - | - | - |
| 1777928243 | 12.22° C | 50% | 1005.3 hPa | 0 mm | - | - | - |
| 1777928055 | 12.22° C | 50% | 1005.3 hPa | 0 mm | - | - | - |
| 1777927823 | 12.22° C | 50% | 1005.3 hPa | 0 mm | - | - | - |
| 1777927455 | 12.78° C | 52% | 1005.2 hPa | 0 mm | - | - | - |
| 1777927402 | 12.78° C | 52% | 1005.2 hPa | 0 mm | - | - | - |
| 1777926984 | 12.78° C | 51% | 1005 hPa | 0 mm | - | - | - |
| 1777926855 | 12.78° C | 52% | 1004.8 hPa | 0 mm | - | - | - |
| 1777926562 | 12.78° C | 51% | 1004.8 hPa | 0 mm | - | - | - |
| 1777926254 | 12.22° C | 52% | 1004.8 hPa | 0 mm | - | - | - |
| 1777926144 | 12.22° C | 52% | 1004.8 hPa | 0 mm | - | - | - |
| 1777925724 | 12.22° C | 51% | 1005 hPa | 0 mm | - | - | - |
| 1777925656 | 12.78° C | 51% | 1004.9 hPa | 0 mm | - | - | - |
| 1777925308 | 12.78° C | 51% | 1004.9 hPa | 0 mm | - | - | - |
| 1777925056 | 12.22° C | 54% | 1004.9 hPa | 0 mm | - | - | - |
| 1777924883 | 12.22° C | 54% | 1004.9 hPa | 0 mm | - | - | - |
| 1777924456 | 12.22° C | 54% | 1004.9 hPa | 0 mm | - | - | - |
* Rain latest hour (hover to see other rain measurements)
** Current wind speed in m/s (hover to see current wind gust speed)